Location: Apeadero de Los Molinos-Guadarrama
(40.7091°N, 4.0689°W)
Time: 12:19:18
(UTC+00:00)

Cosmos 2082 Rocket - Pass Details

Date: 14 May 2021
Orbit: 834 x 852 km, 71.0° (Epoch: 18 June)

Event Time Altitude Azimuth Distance (km) Brightness Sun altitude
Rises 22:37:29 0° 325° (NW) 3,390 6.6 -26.5°
Reaches altitude 10° 22:40:12 10° 315° (NW) 2,452 5.5 -26.7°
Maximum altitude 22:44:56 29° 257° (WSW) 1,504 3.5 -27.0°
Enters shadow 22:45:48 27° 241° (WSW) 1,546 3.5 -27.1°
